map of KRT home
Great Circle Mapper logo
KRT - Airport
Location
City:  Khartoum, Sudan
ICAO / IATA:HSSS / KRT

Details
Type:Airport (Aerodrome, Airfield)
Use:Public/Civil, Military, International (customs port of entry)
Latitude:1535'22"N (15.589497)
Longitude:3233'11"E (32.553161)
Datum:WGS 1984
Elevation:1265 ft (386 m)
Variation:3.20E (WMM2015 magnetic declination)
0.08 annual change
Runways:1
Longest:9777 × 148 ft (2980 × 45 m), paved

Time
Time Zone:UTC+3
Local Time:

Weather
METAR:HSSS 022300Z 14010KT CAVOK 31/15 Q1012 NOSIG
TAF:HSSS 022200Z 0300/0406 13012G22KT CAVOK
TEMPO 0300/0309 6000 SCT140

Related Locations
Nearby:
Farthest:KKR: 12412 mi / 19975 km
Kaukura Atoll, PF

Find:

   beyond  
but within

Other Information
Maps:
NOTAMs:
Links:
Sources:

  
flag of Sudan   

Sectional Chart

Flight Planning
at skyvector.com

Satellite Image

Google Maps Satellite view

 

Copyright © 2004-2015 Karl L. Swartz. All rights reserved.
The Great Circle Mapper name and logo are trademarks of the Great Circle Mapper.
All other trademarks mentioned herein belong to their respective owners.
Please see credits for attibutions and further copyright information.

  Follow gcmap on Facebook Follow gcmap on Twitter Follow gcmap on Google+

hCard Microformat

Geo Microformat